Погода в Варрнамбуле

Австралия     38°23′02″S   142°29′00″E
темп.,
°C
ветер,
м/с
пор.,
м/с
влажн.,
%
обл.,
%
осадки,
мм/ч
давл.,
гПа
погр.,
м
4 декабря, сб
сб423:00+14зюз776699 0.0 10201227
02:00+14зюз8971100 0.1 10191183
05:00+14зюз7971100 0.3 10181042
08:00+14юз910729 0.4 10191096
11:00+15зюз887393 0.5 1020979
14:00+15ю777416 0.5 1021916
17:00+14ю667292 0.6 1021988
20:00+14ю6663100 0.1 10221155
5 декабря, вс
вс523:00+13юв5560100 0.1 10231073
02:00+13юв445998 0.0 10221094
05:00+13юв55615 0.0 10211015
08:00+12в45670 0.0 1022530
11:00+13юв55625 0.0 1023830
14:00+13юв66630 0.0 1020492
17:00+14юв77690 0.0 1019468
20:00+14юв99690 0.0 1018556
6 декабря, пн
пн623:00+14вюв78750 0.0 1018361
02:00+12св34770 0.0 1015139
05:00+12всв46820 0.0 1013164
08:00+14ссв410787 0.0 1013286
11:00+17зюз56680 0.0 1011237
14:00+14юз78836 0.0 1010201
17:00+16зюз712795 0.0 1010668
20:00+15зюз69780 0.0 1012803
7 декабря, вт
вт723:00+15зюз57791 0.0 1013760
02:00+15зсз458196 0.2 1012579
05:00+14юз8880100 1.7 1012851
08:00+13ююз8867100 0.2 10151142
11:00+13юз886671 0.3 10161250
14:00+14юз88595 0.1 10171516
17:00+14ююз88616 0.2 10171460
20:00+13ююз8857100 0.1 10191790
8 декабря, ср
ср823:00+13ю7858100 0.3 10201432
02:00+13ю8861100 0.2 10191405
05:00+13ю8856100 0.4 10191796
08:00+13ю996174 0.1 10211574
11:00+13ююв995877 0.6 10221674
14:00+13ю985587 0.0 10221777
17:00+13ююв995929 0.1 10221670
20:00+13ююв1095868 0.1 10221821